timestamp,wind_dir_avg,wind_spd_avg,wind_spd_max_dir,wind_spd_gust,battery_voltage,lat,long
2021-11-06 00:04:01+00:00,114.0,4.4,115.0,6.3,12.57,47.59359,-54.27349
2021-11-06 00:14:01+00:00,114.0,3.92,119.0,6.66,12.57,47.59359,-54.27349
2021-11-06 00:24:01+00:00,92.0,3.67,83.0,5.82,12.57,47.59359,-54.27349
2021-11-06 00:34:01+00:00,95.0,3.65,108.0,5.35,12.57,47.59359,-54.27349
2021-11-06 00:44:01+00:00,111.0,3.34,124.0,5.11,12.57,47.59359,-54.27349
2021-11-06 00:54:01+00:00,111.0,3.61,100.0,5.84,12.57,47.59359,-54.27349
2021-11-06 01:04:01+00:00,73.0,3.79,86.0,6.05,12.57,47.59359,-54.27349
2021-11-06 01:14:00+00:00,76.0,3.81,77.0,4.62,12.57,47.59359,-54.27349
2021-11-06 01:24:00+00:00,73.0,4.3,64.0,6.02,12.57,47.59359,-54.27349
2021-11-06 01:34:00+00:00,69.0,3.2,72.0,5.02,12.57,47.59359,-54.27349
2021-11-06 01:44:00+00:00,63.0,5.2,56.0,6.35,12.57,47.59359,-54.27349
2021-11-06 01:54:00+00:00,57.0,4.91,56.0,6.2,12.57,47.59359,-54.27349
2021-11-06 02:04:00+00:00,59.0,6.43,55.0,7.62,12.57,47.59359,-54.27349
2021-11-06 02:14:00+00:00,46.0,6.66,43.0,7.7,12.49,47.59359,-54.27349
2021-11-06 02:24:00+00:00,38.0,8.05,49.0,8.69,12.49,47.59359,-54.27349
2021-11-06 02:34:00+00:00,36.0,8.14,36.0,9.7,12.49,47.59359,-54.27349
2021-11-06 02:44:00+00:00,33.0,8.6,28.0,9.94,12.49,47.59359,-54.27349
2021-11-06 02:54:00+00:00,43.0,8.41,45.0,10.09,12.49,47.59359,-54.27349
2021-11-06 03:04:00+00:00,33.0,8.42,35.0,9.19,12.49,47.59359,-54.27349
2021-11-06 03:14:00+00:00,19.0,8.1,18.0,8.79,12.49,47.59359,-54.27349
2021-11-06 03:24:00+00:00,23.0,8.51,20.0,10.11,12.49,47.59359,-54.27349
2021-11-06 03:34:00+00:00,23.0,8.33,25.0,9.59,12.49,47.59359,-54.27349
2021-11-06 03:44:00+00:00,19.0,9.08,21.0,10.3,12.49,47.59359,-54.27349
2021-11-06 03:54:00+00:00,7.0,8.86,15.0,10.21,12.49,47.59359,-54.27349
2021-11-06 04:04:00+00:00,12.0,8.87,14.0,10.1,12.49,47.59359,-54.27349
2021-11-06 04:14:00+00:00,13.0,9.64,17.0,11.42,12.49,47.59359,-54.27349
2021-11-06 04:24:00+00:00,12.0,8.87,17.0,9.58,12.49,47.59359,-54.27349
2021-11-06 04:34:00+00:00,15.0,8.98,27.0,10.57,12.49,47.59359,-54.27349
2021-11-06 04:44:00+00:00,25.0,8.67,33.0,10.29,12.49,47.59359,-54.27349
2021-11-06 04:54:00+00:00,26.0,9.58,33.0,10.72,12.49,47.59359,-54.27349
2021-11-06 05:04:00+00:00,23.0,9.3,28.0,10.37,12.49,47.59359,-54.27349
2021-11-06 05:14:01+00:00,21.0,8.56,22.0,10.05,12.41,47.59359,-54.27349
2021-11-06 05:24:01+00:00,18.0,8.87,15.0,10.42,12.41,47.59359,-54.27349
2021-11-06 05:34:01+00:00,21.0,9.22,17.0,11.13,12.41,47.59359,-54.27349
2021-11-06 05:44:01+00:00,16.0,8.83,15.0,10.47,12.41,47.59359,-54.27349
2021-11-06 05:54:01+00:00,25.0,9.54,25.0,11.05,12.41,47.59359,-54.27349
2021-11-06 06:04:01+00:00,19.0,9.42,20.0,11.06,12.41,47.59359,-54.27349
2021-11-06 06:14:00+00:00,16.0,9.01,14.0,10.58,12.41,47.59359,-54.27349
2021-11-06 06:24:00+00:00,6.0,9.31,5.0,11.62,12.41,47.59359,-54.27349
2021-11-06 06:34:00+00:00,5.0,10.08,19.0,12.59,12.41,47.59359,-54.27349
2021-11-06 06:44:00+00:00,9.0,8.96,359.0,10.95,12.41,47.59359,-54.27349
2021-11-06 06:54:00+00:00,8.0,9.65,12.0,11.98,12.41,47.59359,-54.27349
2021-11-06 07:04:00+00:00,2.0,10.72,0.0,12.26,12.41,47.59359,-54.27349
2021-11-06 07:14:01+00:00,1.0,9.68,358.0,11.2,12.41,47.59359,-54.27349
2021-11-06 07:24:01+00:00,6.0,8.99,14.0,10.67,12.41,47.59359,-54.27349
2021-11-06 07:34:01+00:00,2.0,10.51,0.0,11.79,12.41,47.59359,-54.27349
2021-11-06 07:44:01+00:00,0.0,8.32,359.0,9.98,12.41,47.59359,-54.27349
2021-11-06 07:54:01+00:00,5.0,9.27,352.0,11.24,12.41,47.59359,-54.27349
2021-11-06 08:04:01+00:00,5.0,8.44,6.0,9.39,12.41,47.59359,-54.27349
2021-11-06 08:14:00+00:00,358.0,9.06,0.0,10.52,12.41,47.59359,-54.27349
2021-11-06 08:24:00+00:00,359.0,8.54,4.0,9.64,12.41,47.59359,-54.27349
2021-11-06 08:34:00+00:00,356.0,8.91,357.0,10.3,12.41,47.59359,-54.27349
2021-11-06 08:44:00+00:00,350.0,9.33,358.0,11.26,12.41,47.59359,-54.27349
2021-11-06 08:54:00+00:00,358.0,9.47,4.0,10.35,12.41,47.59359,-54.27349
2021-11-06 09:04:00+00:00,1.0,10.77,2.0,12.6,12.41,47.59359,-54.27349
2021-11-06 09:14:00+00:00,358.0,12.0,0.0,13.27,12.33,47.59359,-54.27349
2021-11-06 09:24:00+00:00,350.0,9.64,348.0,10.63,12.33,47.59359,-54.27349
2021-11-06 09:34:00+00:00,353.0,10.17,0.0,11.34,12.33,47.59359,-54.27349
2021-11-06 09:44:00+00:00,349.0,10.51,345.0,11.68,12.33,47.59359,-54.27349
2021-11-06 09:54:00+00:00,348.0,9.03,347.0,10.23,12.33,47.59359,-54.27349
2021-11-06 10:04:00+00:00,357.0,7.36,356.0,7.98,12.33,47.59359,-54.27349
2021-11-06 10:14:00+00:00,345.0,7.94,345.0,9.38,12.33,47.59359,-54.27349
2021-11-06 10:24:00+00:00,342.0,8.26,343.0,9.76,12.33,47.59359,-54.27349
2021-11-06 10:34:00+00:00,3.0,7.3,0.0,8.95,12.33,47.59359,-54.27349
2021-11-06 10:44:00+00:00,352.0,6.88,355.0,7.71,12.33,47.59359,-54.27349
2021-11-06 10:54:00+00:00,342.0,7.66,344.0,8.61,12.33,47.59359,-54.27349
2021-11-06 11:04:00+00:00,352.0,6.57,349.0,7.68,12.33,47.59359,-54.27349
2021-11-06 11:14:00+00:00,359.0,7.6,1.0,8.98,12.41,47.59359,-54.27349
2021-11-06 11:24:00+00:00,347.0,9.52,348.0,10.77,12.41,47.59359,-54.27349
2021-11-06 11:34:00+00:00,348.0,8.69,355.0,9.98,12.41,47.59359,-54.27349
2021-11-06 11:44:00+00:00,346.0,8.32,345.0,9.1,12.41,47.59359,-54.27349
2021-11-06 11:54:00+00:00,336.0,8.82,328.0,9.8,12.41,47.59359,-54.27349
2021-11-06 12:04:00+00:00,335.0,7.82,325.0,10.67,12.41,47.59359,-54.27349
2021-11-06 12:14:00+00:00,347.0,8.22,349.0,9.19,14.32,47.59359,-54.27349
2021-11-06 12:24:00+00:00,336.0,7.23,338.0,8.75,14.32,47.59359,-54.27349
2021-11-06 12:34:00+00:00,332.0,7.48,337.0,8.37,14.32,47.59359,-54.27349
2021-11-06 12:44:00+00:00,344.0,7.38,344.0,8.62,14.32,47.59359,-54.27349
2021-11-06 12:54:00+00:00,336.0,8.47,333.0,10.34,14.32,47.59359,-54.27349
2021-11-06 13:04:00+00:00,334.0,8.3,312.0,11.27,14.32,47.59359,-54.27349
2021-11-06 13:14:00+00:00,338.0,7.39,330.0,9.31,13.68,47.59359,-54.27349
2021-11-06 13:24:00+00:00,340.0,6.69,335.0,8.05,13.68,47.59359,-54.27349
2021-11-06 13:34:00+00:00,351.0,6.94,355.0,8.42,13.68,47.59359,-54.27349
2021-11-06 13:44:00+00:00,340.0,8.02,344.0,9.57,13.68,47.59359,-54.27349
2021-11-06 13:54:00+00:00,338.0,8.02,334.0,10.09,13.68,47.59359,-54.27349
2021-11-06 14:04:00+00:00,331.0,7.77,330.0,8.64,13.68,47.59359,-54.27349
2021-11-06 14:14:00+00:00,319.0,7.31,302.0,9.29,13.68,47.59359,-54.27349
2021-11-06 14:24:00+00:00,327.0,6.68,317.0,8.52,13.68,47.59359,-54.27349
2021-11-06 14:34:00+00:00,323.0,6.13,330.0,7.05,13.68,47.59359,-54.27349
2021-11-06 14:44:00+00:00,320.0,4.51,322.0,6.09,13.68,47.59359,-54.27349
2021-11-06 14:54:00+00:00,329.0,6.25,324.0,7.55,13.68,47.59359,-54.27349
2021-11-06 15:04:00+00:00,331.0,6.38,336.0,7.33,13.68,47.59359,-54.27349
2021-11-06 15:14:00+00:00,316.0,3.37,316.0,4.89,13.84,47.59359,-54.27349
2021-11-06 15:24:00+00:00,324.0,4.41,319.0,5.6,13.84,47.59359,-54.27349
2021-11-06 15:34:00+00:00,327.0,9.19,328.0,11.44,13.84,47.59359,-54.27349
2021-11-06 15:44:00+00:00,324.0,7.56,323.0,8.39,13.84,47.59359,-54.27349
2021-11-06 15:54:00+00:00,309.0,8.26,315.0,10.02,13.84,47.59359,-54.27349
2021-11-06 16:04:00+00:00,308.0,7.21,313.0,8.51,13.84,47.59359,-54.27349
2021-11-06 16:14:01+00:00,301.0,9.28,294.0,13.26,14.0,47.59359,-54.27349
2021-11-06 16:24:01+00:00,307.0,7.33,309.0,9.44,14.0,47.59359,-54.27349
2021-11-06 16:34:01+00:00,308.0,8.36,314.0,10.22,14.0,47.59359,-54.27349
2021-11-06 16:44:01+00:00,300.0,8.61,302.0,11.04,14.0,47.59359,-54.27349
2021-11-06 16:54:01+00:00,295.0,8.47,281.0,14.15,14.0,47.59359,-54.27349
2021-11-06 17:04:01+00:00,311.0,8.9,312.0,9.82,14.0,47.59359,-54.27349
2021-11-06 17:14:00+00:00,304.0,7.45,309.0,8.93,13.84,47.59359,-54.27349
2021-11-06 17:24:00+00:00,303.0,5.59,301.0,7.29,13.84,47.59359,-54.27349
2021-11-06 17:34:00+00:00,292.0,9.84,291.0,13.86,13.84,47.59359,-54.27349
2021-11-06 17:44:00+00:00,290.0,8.91,279.0,12.23,13.84,47.59359,-54.27349
2021-11-06 17:54:00+00:00,285.0,7.23,289.0,8.27,13.84,47.59359,-54.27349
2021-11-06 18:04:00+00:00,292.0,7.73,294.0,8.96,13.84,47.59359,-54.27349
2021-11-06 18:14:01+00:00,301.0,7.68,307.0,8.87,13.53,47.59359,-54.27349
2021-11-06 18:24:01+00:00,293.0,8.12,286.0,13.12,13.53,47.59359,-54.27349
2021-11-06 18:34:01+00:00,289.0,8.02,283.0,11.14,13.53,47.59359,-54.27349
2021-11-06 18:44:01+00:00,296.0,8.18,295.0,11.05,13.53,47.59359,-54.27349
2021-11-06 18:54:01+00:00,282.0,8.88,279.0,13.09,13.53,47.59359,-54.27349
2021-11-06 19:04:01+00:00,295.0,8.2,287.0,13.45,13.53,47.59359,-54.27349
2021-11-06 19:14:00+00:00,295.0,7.46,300.0,8.16,13.84,47.59359,-54.27349
2021-11-06 19:24:00+00:00,288.0,5.72,289.0,6.6,13.84,47.59359,-54.27349
2021-11-06 19:34:00+00:00,274.0,7.22,278.0,7.77,13.84,47.59359,-54.27349
2021-11-06 19:44:00+00:00,279.0,8.07,281.0,10.68,13.84,47.59359,-54.27349
2021-11-06 19:54:00+00:00,281.0,6.07,285.0,6.71,13.84,47.59359,-54.27349
2021-11-06 20:04:00+00:00,289.0,6.39,289.0,7.43,13.84,47.59359,-54.27349
2021-11-06 20:14:01+00:00,285.0,6.32,288.0,7.43,13.05,47.59359,-54.27349
2021-11-06 20:24:01+00:00,283.0,7.2,276.0,10.98,13.05,47.59359,-54.27349
2021-11-06 20:34:01+00:00,277.0,6.45,282.0,7.46,13.05,47.59359,-54.27349
2021-11-06 20:44:01+00:00,281.0,6.3,286.0,6.96,13.05,47.59359,-54.27349
2021-11-06 20:54:01+00:00,289.0,7.1,294.0,7.99,13.05,47.59359,-54.27349
2021-11-06 21:04:01+00:00,274.0,5.46,269.0,6.66,13.05,47.59359,-54.27349
2021-11-06 21:14:01+00:00,280.0,5.87,284.0,7.04,12.65,47.59359,-54.27349
2021-11-06 21:24:01+00:00,272.0,7.14,271.0,8.3,12.65,47.59359,-54.27349
2021-11-06 21:34:01+00:00,269.0,5.34,266.0,6.86,12.65,47.59359,-54.27349
2021-11-06 21:44:01+00:00,263.0,6.6,267.0,8.15,12.65,47.59359,-54.27349
2021-11-06 21:54:01+00:00,269.0,7.57,269.0,8.22,12.65,47.59359,-54.27349
2021-11-06 22:04:01+00:00,269.0,6.55,270.0,7.43,12.65,47.59359,-54.27349
2021-11-06 22:14:01+00:00,272.0,6.83,278.0,8.22,12.57,47.59359,-54.27349
2021-11-06 22:24:01+00:00,259.0,6.81,259.0,7.74,12.57,47.59359,-54.27349
2021-11-06 22:34:01+00:00,241.0,4.48,252.0,6.24,12.57,47.59359,-54.27349
2021-11-06 22:44:01+00:00,233.0,4.59,251.0,7.47,12.57,47.59359,-54.27349
2021-11-06 22:54:01+00:00,252.0,5.77,253.0,7.7,12.57,47.59359,-54.27349
2021-11-06 23:04:01+00:00,242.0,5.82,250.0,7.88,12.57,47.59359,-54.27349
2021-11-06 23:14:00+00:00,220.0,5.38,243.0,7.86,12.57,47.59359,-54.27349
2021-11-06 23:24:00+00:00,245.0,6.78,243.0,8.31,12.57,47.59359,-54.27349
2021-11-06 23:34:00+00:00,251.0,7.56,254.0,8.57,12.57,47.59359,-54.27349
2021-11-06 23:44:00+00:00,246.0,7.8,245.0,8.33,12.57,47.59359,-54.27349
2021-11-06 23:54:00+00:00,250.0,7.43,244.0,8.36,12.57,47.59359,-54.27349
